Waskish, MN

2:30 AM CDT on October 18, 2017 (GMT -0500)
Waskish Municipal

Weather History for KVWU - September, 2013

Change the Weather History Date:

Wednesday, September 4, 2013

  Actual Average (KBDE) Record (KBDE)
Temperature  
Mean Temperature 56 °F -  
Max Temperature 69 °F 74 °F 94 °F (1983)
Min Temperature 42 °F 49 °F 33 °F (1961)
Degree Days  
Heating Degree Days 10    
Growing Degree Days 6 (Base 50)    
Moisture  
Dew Point 48 °F    
Average Humidity 73    
Maximum Humidity 100    
Minimum Humidity 43    
Precipitation  
Precipitation 0.00 in - - ()
Sea Level Pressure  
Sea Level Pressure 30.16 in    
Wind  
Wind Speed 4 mph (North)    
Max Wind Speed 8 mph    
Max Gust Speed -    
Visibility 10 miles    
Events      
Averages and records for this station are not official NWS values.
T = Trace of Precipitation, MM = Missing Value Source: NWS Daily Summary

Daily Weather History Graph

Daily Weather History Graph

Search for Another Location

Airport or City:

Trip Planner

Search our weather history database for the weather conditions in past years. The results will help you decide how hot, cold, wet, or windy it might be!

Date:

Astronomy

Sep. 04, 2013 Rise Set
Actual Time 6:40 AM CDT 7:52 PM CDT
Civil Twilight 6:08 AM CDT 8:24 PM CDT
Nautical Twilight 5:29 AM CDT 9:03 PM CDT
Astronomical Twilight 4:48 AM CDT 9:44 PM CDT
Moon 5:53 AM CDT (9/4) 7:09 PM CDT (9/4)
Length of Visible Light 14h 16m
Length of Day
13h 12m
Waning Crescent, 1% of the Moon is Illuminated
Sep 4
Waning Crescent
Sep 5
New
Sep 12
First Quarter
Sep 19
Full
Sep 26
Last Quarter

Hourly Weather History & Observations

Time (CDT) Temp. Windchill Dew Point Humidity Pressure Visibility Wind Dir Wind Speed Gust Speed Precip Events Conditions
12:06 AM 62.6 °F - 53.6 °F 72% 30.01 in 10.0 mi NNW 5.8 mph - N/A   Clear
12:27 AM 62.6 °F - 55.4 °F 77% 30.02 in 5.0 mi NNW 5.8 mph - N/A   Haze
12:46 AM 60.8 °F - 55.4 °F 82% 30.03 in 2.0 mi NNW 4.6 mph - N/A   Haze
1:06 AM 60.8 °F - 55.4 °F 82% 30.04 in 10.0 mi NNW 4.6 mph - N/A   Clear
1:27 AM 60.8 °F - 55.4 °F 82% 30.05 in 7.0 mi NNW 5.8 mph - N/A   Clear
1:46 AM 59.0 °F - 55.4 °F 88% 30.06 in 4.0 mi NNW 3.5 mph - N/A   Clear
2:06 AM 57.2 °F - 53.6 °F 88% 30.07 in 10.0 mi North 3.5 mph - N/A   Clear
2:27 AM 55.4 °F - 53.6 °F 94% 30.08 in 10.0 mi North 4.6 mph - N/A   Clear
2:46 AM 55.4 °F - 51.8 °F 88% 30.08 in 10.0 mi North 4.6 mph - N/A   Clear
3:07 AM 53.6 °F - 51.8 °F 94% 30.09 in 10.0 mi North 4.6 mph - N/A   Clear
3:27 AM 53.6 °F - 50.0 °F 88% 30.09 in 10.0 mi North 4.6 mph - N/A   Clear
3:46 AM 53.6 °F - 50.0 °F 88% 30.09 in 10.0 mi Calm Calm - N/A   Clear
4:07 AM 51.8 °F - 48.2 °F 88% 30.10 in 10.0 mi North 3.5 mph - N/A   Clear
4:27 AM 51.8 °F - 48.2 °F 88% 30.10 in 10.0 mi NNE 3.5 mph - N/A   Clear
4:46 AM 51.8 °F - 46.4 °F 82% 30.10 in 10.0 mi NNE 3.5 mph - N/A   Clear
5:07 AM 50.0 °F - 46.4 °F 87% 30.11 in 10.0 mi NNE 4.6 mph - N/A   Clear
5:26 AM 50.0 °F - 46.4 °F 87% 30.12 in 10.0 mi NNE 3.5 mph - N/A   Clear
5:46 AM 48.2 °F - 46.4 °F 93% 30.12 in 10.0 mi NNE 3.5 mph - N/A   Clear
6:07 AM 48.2 °F - 44.6 °F 87% 30.13 in 10.0 mi NE 4.6 mph - N/A   Clear
6:26 AM 48.2 °F - 44.6 °F 87% 30.14 in 10.0 mi NE 4.6 mph - N/A   Clear
6:46 AM 46.4 °F 44.3 °F 44.6 °F 93% 30.15 in 10.0 mi NE 4.6 mph - N/A   Clear
7:07 AM 48.2 °F - 44.6 °F 87% 30.16 in 10.0 mi Calm Calm - N/A   Clear
7:26 AM 48.2 °F - 46.4 °F 93% 30.16 in 10.0 mi NE 4.6 mph - N/A   Clear
7:46 AM 50.0 °F - 46.4 °F 87% 30.17 in 10.0 mi ENE 5.8 mph - N/A   Clear
8:07 AM 51.8 °F - 48.2 °F 88% 30.17 in 10.0 mi NE 6.9 mph - N/A   Clear
8:26 AM 53.6 °F - 48.2 °F 82% 30.18 in 10.0 mi ENE 6.9 mph - N/A   Clear
8:46 AM 55.4 °F - 50.0 °F 82% 30.18 in 10.0 mi ENE 8.1 mph - N/A   Clear
9:07 AM 57.2 °F - 50.0 °F 77% 30.19 in 10.0 mi NE 5.8 mph - N/A   Clear
9:26 AM 59.0 °F - 50.0 °F 72% 30.20 in 10.0 mi East 6.9 mph - N/A   Clear
9:46 AM 59.0 °F - 50.0 °F 72% 30.20 in 10.0 mi ENE 3.5 mph - N/A   Clear
10:07 AM 60.8 °F - 50.0 °F 68% 30.20 in 10.0 mi ENE 4.6 mph - N/A   Clear
10:26 AM 62.6 °F - 50.0 °F 63% 30.20 in 10.0 mi NE 3.5 mph - N/A   Clear
10:46 AM 62.6 °F - 50.0 °F 63% 30.20 in 10.0 mi NNE 3.5 mph - N/A   Clear
11:07 AM 62.6 °F - 50.0 °F 63% 30.21 in 10.0 mi Calm Calm - N/A   Clear
11:26 AM 64.4 °F - 50.0 °F 59% 30.21 in 10.0 mi NNE 3.5 mph - N/A   Clear
11:46 AM 64.4 °F - 48.2 °F 56% 30.21 in 10.0 mi Calm Calm - N/A   Clear
12:07 PM 66.2 °F - 48.2 °F 52% 30.21 in 10.0 mi West 4.6 mph - N/A   Clear
12:26 PM 66.2 °F - 51.8 °F 60% 30.21 in 10.0 mi West 5.8 mph - N/A   Clear
12:46 PM 66.2 °F - 50.0 °F 56% 30.20 in 10.0 mi West 5.8 mph - N/A   Clear
1:07 PM 66.2 °F - 48.2 °F 52% 30.20 in 10.0 mi WSW 4.6 mph - N/A   Clear
1:26 PM 66.2 °F - 48.2 °F 52% 30.20 in 10.0 mi WSW 4.6 mph - N/A   Clear
1:46 PM 68.0 °F - 48.2 °F 49% 30.19 in 10.0 mi West 3.5 mph - N/A   Clear
2:07 PM 68.0 °F - 50.0 °F 52% 30.19 in 10.0 mi WSW 5.8 mph - N/A   Clear
2:26 PM 68.0 °F - 50.0 °F 52% 30.19 in 10.0 mi West 6.9 mph - N/A   Clear
2:46 PM 68.0 °F - 50.0 °F 52% 30.19 in 10.0 mi West 4.6 mph - N/A   Clear
3:06 PM 69.8 °F - 50.0 °F 49% 30.18 in 10.0 mi West 4.6 mph - N/A   Clear
3:26 PM 69.8 °F - 51.8 °F 53% 30.18 in 10.0 mi WSW 5.8 mph - N/A   Clear
3:47 PM 68.0 °F - 50.0 °F 52% 30.18 in 10.0 mi West 4.6 mph - N/A   Clear
4:06 PM 69.8 °F - 51.8 °F 53% 30.18 in 10.0 mi WSW 4.6 mph - N/A   Clear
4:26 PM 69.8 °F - 50.0 °F 49% 30.18 in 10.0 mi West 3.5 mph - N/A   Clear
4:47 PM 69.8 °F - 51.8 °F 53% 30.18 in 10.0 mi West 4.6 mph - N/A   Clear
5:06 PM 69.8 °F - 51.8 °F 53% 30.18 in 10.0 mi West 4.6 mph - N/A   Clear
5:26 PM 69.8 °F - 51.8 °F 53% 30.18 in 10.0 mi WNW 3.5 mph - N/A   Clear
5:47 PM 69.8 °F - 50.0 °F 49% 30.18 in 10.0 mi Calm Calm - N/A   Clear
6:06 PM 66.2 °F - 44.6 °F 46% 30.18 in 10.0 mi North 6.9 mph - N/A   Clear
6:26 PM 66.2 °F - 42.8 °F 43% 30.18 in 10.0 mi North 5.8 mph - N/A   Clear
6:47 PM 64.4 °F - 44.6 °F 49% 30.19 in 10.0 mi NNW 3.5 mph - N/A   Clear
7:06 PM 62.6 °F - 41.0 °F 45% 30.18 in 10.0 mi North 3.5 mph - N/A   Clear
7:26 PM 60.8 °F - 41.0 °F 48% 30.19 in 10.0 mi Calm Calm - N/A   Clear
7:47 PM 55.4 °F - 44.6 °F 67% 30.19 in 10.0 mi Calm Calm - N/A   Clear
8:06 PM 51.8 °F - 44.6 °F 76% 30.19 in 10.0 mi Calm Calm - N/A   Clear
8:26 PM 51.8 °F - 46.4 °F 82% 30.20 in 10.0 mi Calm Calm - N/A   Clear
8:47 PM 48.2 °F - 46.4 °F 93% 30.20 in 10.0 mi Calm Calm - N/A   Clear
9:06 PM 48.2 °F - 44.6 °F 87% 30.20 in 10.0 mi Calm Calm - N/A   Clear
9:26 PM 46.4 °F - 44.6 °F 93% 30.20 in 10.0 mi Calm Calm - N/A   Clear
9:47 PM 46.4 °F - 44.6 °F 93% 30.20 in 10.0 mi Calm Calm - N/A   Clear
10:06 PM 44.6 °F - 42.8 °F 93% 30.20 in 10.0 mi Calm Calm - N/A   Clear
10:26 PM 44.6 °F - 42.8 °F 93% 30.20 in 10.0 mi Calm Calm - N/A   Clear
10:47 PM 44.6 °F - 42.8 °F 93% 30.21 in 10.0 mi Calm Calm - N/A   Clear
11:06 PM 42.8 °F 41.1 °F 42.8 °F 100% 30.21 in 10.0 mi ESE 3.5 mph - N/A   Clear
11:26 PM 42.8 °F - 42.8 °F 100% 30.21 in 10.0 mi Calm Calm - N/A   Clear
11:46 PM 42.8 °F - 41.0 °F 93% 30.21 in 10.0 mi Calm Calm - N/A   Clear